Home   Weather   Missoula   Past weeks
Flag for USA

Past Weather in Missoula, Montana, USA — September 2017

Now
32 °F

Clear.


Feels Like: 32 °F
Forecast: 60 / 32 °F
Wind: No wind

Location: Missoula International Airport

Current Time: Apr 8, 2020 at 6:07:39 am

Latest Report: Apr 8, 2020 at 4:53 am


Visibility: 10 mi

Pressure: 30.18 "Hg (26.72 "Hg at 971m altitude)

Humidity: 75%

Dew Point: 25 °F

Location of MissoulaLocation

September 2017 Weather in Missoula — Graph

°F

High & Low Weather Summary for September 2017

 TemperatureHumidityPressure
High96 °F (Sep 2, 5:53 pm)100% (Sep 19, 6:53 am)30.34 "Hg (Sep 19, 6:53 am)
Low32 °F (Sep 23, 7:05 am)7% (Sep 2, 6:53 pm)29.63 "Hg (Sep 20, 12:04 pm)
Average56 °F61%30.03 "Hg
* Reported Sep 1 12:53 am — Sep 30 11:53 pm, Missoula. Weather by CustomWeather, © 2020

Note: Actual official high and low records may vary slightly from our data, if they occured in-between our weather recording intervals... More about our weather records

Missoula Weather History for September 1, 2017

Scroll right to see more
 ConditionsComfort  
Time TempWeatherWind HumidityBarometerVisibility
12:53 am
Fri, Sep 1
58 °FClear.3 mph50%30.06 "Hg10 mi
1:53 am59 °FClear.3 mph48%30.07 "Hg10 mi
2:53 am57 °FClear.No wind51%30.09 "Hg10 mi
3:53 am55 °FClear.No wind57%30.10 "Hg10 mi
4:53 am54 °FClear.3 mph57%30.11 "Hg10 mi
5:53 am51 °FClear.No wind63%30.14 "Hg10 mi
6:53 am52 °FClear.3 mph61%30.16 "Hg10 mi
7:53 am50 °FSunny.3 mph68%30.20 "Hg10 mi
8:53 am53 °FSunny.No wind61%30.20 "Hg10 mi
9:53 am58 °FSunny.No wind54%30.21 "Hg9 mi
10:53 am64 °FSunny.3 mph41%30.19 "Hg8 mi
11:53 am69 °FSunny.3 mph38%30.17 "Hg8 mi
12:53 pm75 °FSunny.5 mph30%30.14 "Hg10 mi
1:53 pm79 °FSunny.3 mph24%30.12 "Hg9 mi
2:53 pm82 °FSunny.6 mph22%30.09 "Hg10 mi
3:53 pm84 °FSunny.3 mph19%30.06 "Hg10 mi
4:53 pm85 °FSunny.5 mph20%30.04 "Hg10 mi
5:53 pm86 °FSunny.3 mph19%30.03 "Hg10 mi
6:53 pm85 °FSunny.6 mph20%30.02 "Hg7 mi
7:53 pm83 °FSunny.No wind24%30.03 "Hg7 mi
8:53 pm71 °FClear.No wind36%30.07 "Hg8 mi
9:53 pm69 °FClear.6 mph38%30.08 "Hg10 mi
10:53 pm67 °FClear.No wind39%30.09 "Hg10 mi
11:53 pm64 °FClear.6 mph45%30.09 "Hg10 mi
Weather by CustomWeather, © 2020

See weather overview

Advertising